[[{"header":{"parameterUnit":"m.s-1","parameterCategory":1,"la1":30.2991,"la2":30.254,"lo1":-89.0895,"lo2":-89.0444,"dy":0.0017,"dx":0.0017,"nx":28,"ny":28,"refTime":"2024-12-20T09:00:00:Z","depth":0,"parameterNumber":2,"parameterNumberName":"U-component_of_WINDS"},"data":[0,0,0,0,0,0,0,0,0,0,0,0,0,0,0,0,0,0,0,0,0,0,0,0,0,0,0,0,0,0,0,0,0,0,0,0,0,0,0,0,0,0,0,0,0,0,0,0,0,0,0,0,0,0,0,0,0,0,-3.003,-3.003,0,-3.0071,-3.0072,-3.0072,-2.9928,-2.9923,-2.9919,-2.9915,-2.9959,-2.9964,-2.9969,0,0,0,0,0,0,0,0,0,0,0,0,0,-2.9827,-2.9832,-3.003,-3.003,-3.0031,-3.0071,-3.0072,-3.0072,-2.9928,-2.9923,-2.9918,-2.9913,-2.9957,-2.9964,-2.997,0,0,0,0,0,0,0,0,0,0,0,0,0,-2.9897,-2.9833,-3.003,-2.9964,-2.9959,-3.0071,-3.0072,-3.0072,-2.993,-2.9923,-2.9917,-2.991,-2.9955,-2.9963,-2.9971,-3.0149,0,0,-2.9995,-2.9998,0,0,0,0,0,0,0,0,-2.9893,-2.9904,-2.9973,-2.9969,-2.9963,-2.9987,-3.0016,-3.0098,-2.9931,-2.9941,-2.9915,-2.9907,-2.9974,-2.998,-3.0002,-3.0151,-3.0153,-2.9995,-3.0,-3.0003,-3.0006,0,0,0,0,0,0,0,-2.9888,-2.9902,-3.0046,-2.9974,-2.9968,-2.9932,-2.9935,-3.0031,-2.9993,-2.9939,-2.9929,-2.9936,-2.997,-2.9995,-3.0002,-3.0154,-2.9995,-3.0002,-3.0007,-3.001,-3.0449,-3.0456,0,0,0,0,0,0,-2.9892,-2.9899,-3.0045,-3.0047,-2.9911,-2.9941,-2.9944,-2.9986,-2.9992,-2.9986,-2.9941,-2.9929,-2.9985,-2.9993,-3.0003,-3.0211,-3.0003,-3.0011,-3.0015,-3.0443,-3.0451,-3.0459,0,0,0,0,0,0,-2.9888,-2.9906,-3.0043,-2.997,-2.9985,-2.9952,-3.0,-2.999,-3.0015,-2.9993,-2.9986,-2.9974,-2.998,-2.9992,-3.0113,-3.0211,-3.0014,-3.0021,-3.0434,-3.0445,-3.0455,-3.0631,0,0,0,0,0,0,-2.9883,-2.9906,-2.9973,-2.9973,-2.9989,-3.0154,-3.0006,-2.9996,-3.0029,-3.0013,-3.0022,-3.0017,-2.9976,-3.0102,-3.0121,-3.0218,-3.0027,-3.0425,-3.0439,-3.0451,-3.0616,-3.0646,-3.0672,0,0,0,0,0,-2.9876,-3.0022,-2.9978,-2.9996,-3.0073,-3.016,-3.0169,-3.0118,-3.0037,-3.0105,-3.009,-3.0017,-3.0197,-3.0116,-3.0136,-3.0237,-3.0419,-3.0435,-3.045,-3.0604,-3.064,-3.0671,0,0,0,0,0,0,-3.0036,-3.0021,-2.9971,-3.0121,-3.0143,-3.0135,-3.0219,-3.0158,-3.0204,-3.0187,-3.0122,-3.0125,-3.0258,-3.0259,-3.0169,-3.0409,-3.0294,-3.0315,-3.0404,-3.0438,-3.0465,-3.0463,-3.0034,0,0,0,0,0,-3.0089,-3.016,-3.0143,-3.0277,-3.029,-3.0253,-3.0289,-3.0247,-3.0267,-3.0276,-3.027,-3.0292,-3.0353,-3.0396,-3.0451,-3.0615,-3.0614,-3.0694,-3.0722,-3.0744,-3.0763,-3.0849,-3.0884,-3.051,-3.051,-3.051,0,0,-3.0199,-3.0199,-3.0248,-3.0309,-3.0321,-3.0396,-3.0262,-3.0347,-3.0402,-3.0289,-3.0403,-3.04,-3.042,-3.0563,-3.0626,-3.0568,-3.0866,-3.0764,-3.0783,-3.0789,-3.0869,-3.0904,-3.0936,-3.0521,-3.0519,-3.0517,0,0,-3.0438,-3.0445,-3.0557,-3.0571,-3.059,-3.0564,-3.0591,-3.0592,-3.0585,-3.0698,-3.0614,-3.0678,-3.0786,-3.0803,-3.0827,-3.107,-3.1004,-3.109,-3.1235,-3.132,-3.1349,-3.1375,-3.1462,-3.1494,-3.1108,-3.1109,-3.1109,0,-3.0573,-3.0682,-3.0623,-3.0714,-3.0743,-3.0641,-3.0754,-3.0771,-3.0808,-3.083,-3.0764,-3.0895,-3.0902,-3.1048,-3.1107,-3.1129,-3.1157,-3.1089,-3.1349,-3.1375,-3.1398,-3.148,-3.1513,-3.1119,-3.1118,-3.1117,-3.1116,0,-3.0847,-3.0924,-3.1012,-3.1049,-3.1087,-3.1189,-3.1145,-3.1191,-3.1146,-3.1127,-3.1243,-3.1246,-3.13,-3.1331,-3.1289,-3.1471,-3.1434,-3.136,-3.1244,-3.1445,-3.1521,-3.1552,-3.1134,-3.113,-3.1127,-3.1124,0,0,-3.119,-3.1191,-3.1224,-3.1239,-3.1251,-3.131,-3.1406,-3.1458,-3.1499,-3.1527,-3.1606,-3.1698,-3.1629,-3.1655,-3.1613,-3.1687,-3.1879,-3.1603,-3.1602,-3.1655,-3.208,-3.2137,-3.2174,-3.1834,-3.184,-3.1844,-3.2078,0,-3.1425,-3.159,-3.1538,-3.1705,-3.1775,-3.1679,-3.1762,-3.1779,-3.1763,-3.182,-3.1802,-3.1869,-3.1772,-3.1788,-3.1856,-3.1841,-3.1964,-3.1823,-3.1908,-3.1912,-3.1907,-3.2214,-3.2274,-3.2495,-3.2108,-3.2113,-3.2116,0,-3.1722,-3.176,-3.1934,-3.1933,-3.196,-3.2037,-3.2079,-3.2135,-3.2151,-3.2134,-3.2163,-3.2104,-3.2198,-3.2081,-3.2209,-3.2115,-3.2146,-3.2143,-3.2151,-3.2158,-3.2027,-3.223,-3.2564,-3.2598,-3.2162,-3.2159,-3.2155,0,-3.1956,-3.2051,-3.2166,-3.2182,-3.2183,-3.2239,-3.2242,-3.2252,-3.2286,-3.2323,-3.2344,-3.2392,-3.2419,-3.2457,-3.2413,-3.2331,-3.2548,-3.2426,-3.2537,-3.2539,-3.2589,-3.2586,-3.2933,-3.2607,-3.2607,-3.2606,-3.2606,0,-3.2224,-3.2334,-3.2271,-3.2343,-3.2462,-3.2401,-3.2522,-3.2514,-3.2523,-3.2591,-3.251,-3.2576,-3.2513,-3.2573,-3.2539,-3.265,-3.2663,-3.2652,-3.2642,-3.266,-3.2662,-3.2681,-3.2664,-3.2615,-3.2613,-3.2611,-3.261,0,-3.2506,-3.2468,-3.2588,-3.2579,-3.2579,-3.2668,-3.266,-3.2725,-3.2702,-3.279,-3.2807,-3.2772,-3.2837,-3.2797,-3.2864,-3.2841,-3.2986,-3.2955,-3.2981,-3.2973,-3.3086,-3.3076,-3.3458,-3.3505,-3.3149,-3.3152,-3.3155,0,-3.2681,-3.2763,-3.2762,-3.2801,-3.281,-3.2874,-3.2908,-3.285,-3.2889,-3.2912,-3.2975,-3.3033,-3.3078,-3.3187,-3.3168,-3.3219,-3.3188,-3.3318,-3.3195,-3.321,-3.319,-3.3186,-3.3194,-3.3344,-3.3348,-3.3351,-3.3354,0,-3.2995,-3.2971,-3.3022,-3.3068,-3.311,-3.3143,-3.3169,-3.3205,-3.3147,-3.3195,-3.326,-3.3295,-3.3362,-3.3421,-3.3463,-3.3466,-3.3402,-3.3392,-3.3421,-3.3441,-3.3453,-3.3448,-3.305,-3.3385,-3.3381,-3.3379,-3.3378,-3.3376,-3.3228,-3.3296,-3.3306,-3.3366,-3.3379,-3.3405,-3.3465,-3.3449,-3.3503,-3.3553,-3.3516,-3.3594,-3.3606,-3.3656,-3.3667,-3.3727,-3.3674,-3.3716,-3.3726,-3.3737,-3.3753,-3.3442,-3.3735,-3.3734,-3.3733,-3.3732,-3.3731,0,-3.3538,-3.3539,-3.3594,-3.3633,-3.368,-3.3612,-3.3637,-3.3681,-3.3751,-3.3767,-3.3811,-3.3887,-3.3943,-3.3928,-3.3978,-3.4029,-3.4001,-3.4045,-3.4041,-3.4042,-3.3797,-3.3768,-3.4067,-3.4067,-3.4067,-3.4067,-3.4067,-3.4067,-3.3705,-3.3816,-3.3794,-3.3911,-3.391,-3.3986,-3.4006,-3.4029,-3.4042,-3.4129,-3.4176,-3.4164,-3.4168,-3.4217,-3.4266,-3.426,-3.4283,-3.4338,-3.4321,-3.4093,-3.406,-3.4028,-3.4,-3.4343,-3.4343,-3.4561,-3.4563,-3.4564]},{"header":{"parameterUnit":"m.s-1","parameterCategory":1,"la1":30.2991,"la2":30.254,"lo1":-89.0895,"lo2":-89.0444,"dy":0.0017,"dx":0.0017,"nx":28,"ny":28,"refTime":"2024-12-20T09:00:00:Z","depth":0,"parameterNumber":3,"parameterNumberName":"V-component_of_WINDS"},"data":[0,0,0,0,0,0,0,0,0,0,0,0,0,0,0,0,0,0,0,0,0,0,0,0,0,0,0,0,0,0,0,0,0,0,0,0,0,0,0,0,0,0,0,0,0,0,0,0,0,0,0,0,0,0,0,0,0,0,-4.1135,-4.1136,0,-4.1215,-4.1216,-4.1217,-4.1181,-4.1179,-4.1177,-4.1175,-4.1253,-4.1257,-4.1261,0,0,0,0,0,0,0,0,0,0,0,0,0,-4.0944,-4.0948,-4.1135,-4.1136,-4.1137,-4.1215,-4.1216,-4.1217,-4.1181,-4.1179,-4.1176,-4.1174,-4.1252,-4.1257,-4.1261,0,0,0,0,0,0,0,0,0,0,0,0,0,-4.1026,-4.0949,-4.1135,-4.1128,-4.1129,-4.1215,-4.1216,-4.1218,-4.1182,-4.1179,-4.1176,-4.1173,-4.125,-4.1256,-4.1262,-4.1358,0,0,-4.128,-4.1283,0,0,0,0,0,0,0,0,-4.1021,-4.1033,-4.1128,-4.1129,-4.1129,-4.1185,-4.1178,-4.1265,-4.1182,-4.1161,-4.1175,-4.1171,-4.1233,-4.124,-4.1261,-4.1362,-4.1365,-4.1281,-4.1284,-4.1287,-4.1288,0,0,0,0,0,0,0,-4.1016,-4.1029,-4.1167,-4.113,-4.113,-4.1119,-4.1128,-4.1194,-4.1213,-4.1163,-4.116,-4.1171,-4.1232,-4.1256,-4.1263,-4.1366,-4.128,-4.1286,-4.1289,-4.1292,-4.1546,-4.155,0,0,0,0,0,0,-4.1011,-4.1025,-4.1164,-4.1169,-4.1067,-4.1125,-4.1135,-4.117,-4.1212,-4.1215,-4.1173,-4.1169,-4.1247,-4.1256,-4.1266,-4.1379,-4.1287,-4.1292,-4.1296,-4.1543,-4.1547,-4.1551,0,0,0,0,0,0,-4.1007,-4.1024,-4.1161,-4.1096,-4.1113,-4.1132,-4.1172,-4.1173,-4.1197,-4.122,-4.1222,-4.1194,-4.1245,-4.1257,-4.1335,-4.1381,-4.1295,-4.13,-4.1539,-4.1544,-4.1549,-4.1607,0,0,0,0,0,0,-4.1002,-4.1022,-4.1061,-4.1098,-4.1117,-4.1231,-4.1175,-4.1177,-4.1207,-4.1202,-4.124,-4.1243,-4.1244,-4.1326,-4.1341,-4.1388,-4.1305,-4.1535,-4.1542,-4.1547,-4.1601,-4.1614,-4.1624,0,0,0,0,0,-4.0995,-4.1074,-4.1063,-4.108,-4.1165,-4.1234,-4.1244,-4.1244,-4.1211,-4.1249,-4.1263,-4.1242,-4.1374,-4.1335,-4.1351,-4.14,-4.1532,-4.154,-4.1547,-4.1596,-4.1611,-4.1624,0,0,0,0,0,0,-4.1041,-4.1079,-4.1067,-4.116,-4.1194,-4.1227,-4.1275,-4.1261,-4.1304,-4.1297,-4.1294,-4.1303,-4.1383,-4.1399,-4.1355,-4.1494,-4.1448,-4.1459,-4.148,-4.1494,-4.1505,-4.1499,-4.131,0,0,0,0,0,-4.1062,-4.1117,-4.1146,-4.1225,-4.1243,-4.1256,-4.1286,-4.1283,-4.1317,-4.1331,-4.1351,-4.1384,-4.1432,-4.1464,-4.1511,-4.1604,-4.161,-4.1645,-4.1657,-4.1666,-4.1675,-4.1722,-4.1738,-4.1574,-4.1574,-4.1574,0,0,-4.1106,-4.1134,-4.1168,-4.1235,-4.1261,-4.1315,-4.1268,-4.1328,-4.1367,-4.134,-4.1414,-4.143,-4.1466,-4.1551,-4.159,-4.1567,-4.1721,-4.1675,-4.1682,-4.1686,-4.1731,-4.1747,-4.176,-4.1579,-4.1578,-4.1578,0,0,-4.1214,-4.1241,-4.1309,-4.1336,-4.1376,-4.1384,-4.14,-4.1435,-4.1445,-4.152,-4.1499,-4.1545,-4.163,-4.1655,-4.1679,-4.1795,-4.1776,-4.181,-4.1868,-4.1915,-4.1928,-4.1939,-4.1978,-4.1992,-4.1819,-4.1819,-4.1819,0,-4.1263,-4.1346,-4.1346,-4.1407,-4.1435,-4.1414,-4.1481,-4.1506,-4.1559,-4.1578,-4.1553,-4.1657,-4.168,-4.1769,-4.1797,-4.1819,-4.1835,-4.1805,-4.1926,-4.1937,-4.1948,-4.1985,-4.2,-4.1823,-4.1822,-4.1822,-4.1821,0,-4.1403,-4.146,-4.151,-4.1561,-4.1596,-4.166,-4.1667,-4.1702,-4.1696,-4.1706,-4.178,-4.1807,-4.1857,-4.1878,-4.1873,-4.1967,-4.1951,-4.1926,-4.188,-4.1967,-4.2001,-4.2016,-4.1828,-4.1827,-4.1825,-4.1825,0,0,-4.1542,-4.1592,-4.161,-4.1632,-4.1674,-4.1717,-4.1778,-4.1828,-4.1857,-4.1893,-4.1943,-4.2014,-4.199,-4.2018,-4.2015,-4.2056,-4.2142,-4.2025,-4.2026,-4.2044,-4.2244,-4.2261,-4.2278,-4.213,-4.2133,-4.2135,-4.224,0,-4.1651,-4.176,-4.1761,-4.1861,-4.1912,-4.1891,-4.1944,-4.1974,-4.1985,-4.2028,-4.2039,-4.2088,-4.2055,-4.2071,-4.2111,-4.2123,-4.2182,-4.2116,-4.2174,-4.2176,-4.2164,-4.2296,-4.2315,-4.2413,-4.2254,-4.2256,-4.2258,0,-4.1793,-4.1834,-4.1939,-4.1971,-4.1992,-4.204,-4.2084,-4.2127,-4.216,-4.2164,-4.2194,-4.2184,-4.2244,-4.2197,-4.2278,-4.2233,-4.2257,-4.2267,-4.227,-4.2274,-4.2221,-4.2302,-4.2444,-4.2458,-4.2279,-4.2278,-4.2276,0,-4.188,-4.1962,-4.2035,-4.2055,-4.2095,-4.2128,-4.2146,-4.2176,-4.2205,-4.2243,-4.2261,-4.2306,-4.233,-4.2364,-4.2365,-4.2331,-4.2446,-4.24,-4.2449,-4.2449,-4.2473,-4.2471,-4.262,-4.2492,-4.2492,-4.2491,-4.2491,0,-4.2001,-4.2065,-4.2075,-4.212,-4.219,-4.219,-4.2259,-4.2273,-4.23,-4.2345,-4.233,-4.2372,-4.2372,-4.2415,-4.2416,-4.2482,-4.2493,-4.2497,-4.2496,-4.2497,-4.2496,-4.2511,-4.2504,-4.2495,-4.2495,-4.2494,-4.2493,0,-4.2111,-4.212,-4.2198,-4.2229,-4.2238,-4.2288,-4.2314,-4.2355,-4.2364,-4.2421,-4.2434,-4.2447,-4.2497,-4.2502,-4.2559,-4.2559,-4.2638,-4.2631,-4.2627,-4.2625,-4.2674,-4.2668,-4.2836,-4.2856,-4.2717,-4.2718,-4.2719,0,-4.2186,-4.2235,-4.2271,-4.2301,-4.2321,-4.2369,-4.2398,-4.2399,-4.243,-4.2469,-4.2505,-4.2553,-4.2591,-4.267,-4.2684,-4.2727,-4.2719,-4.2775,-4.2726,-4.2724,-4.2717,-4.2714,-4.2717,-4.2784,-4.2785,-4.2787,-4.2788,0,-4.2318,-4.232,-4.2364,-4.2409,-4.2444,-4.2479,-4.2512,-4.2537,-4.2541,-4.2576,-4.2627,-4.2656,-4.2714,-4.2761,-4.2803,-4.2819,-4.2803,-4.2803,-4.2817,-4.2817,-4.2812,-4.2813,-4.2651,-4.2799,-4.2798,-4.2797,-4.2796,-4.2796,-4.2411,-4.2453,-4.2485,-4.2533,-4.2558,-4.2588,-4.2628,-4.2642,-4.2684,-4.2732,-4.2729,-4.2784,-4.2813,-4.2868,-4.2887,-4.2928,-4.2909,-4.293,-4.2934,-4.2939,-4.2942,-4.2807,-4.2936,-4.2936,-4.2936,-4.2935,-4.2935,0,-4.254,-4.2559,-4.2604,-4.2651,-4.2688,-4.2671,-4.2706,-4.2738,-4.2787,-4.2816,-4.2854,-4.291,-4.2955,-4.2972,-4.3015,-4.3045,-4.3038,-4.3056,-4.3053,-4.3056,-4.2958,-4.2941,-4.306,-4.306,-4.306,-4.306,-4.306,-4.306,-4.2612,-4.2681,-4.2686,-4.2766,-4.2784,-4.2838,-4.2859,-4.2886,-4.2909,-4.2973,-4.3011,-4.3022,-4.3045,-4.3089,-4.3129,-4.3132,-4.3148,-4.3168,-4.3168,-4.3076,-4.3063,-4.3051,-4.3035,-4.3172,-4.3172,-4.3262,-4.3263,-4.3264]}]]